Flag for Montenegro Weather past 2 weeks in Podgorica, Montenegro

68 °F

Partly cloudy.

Feels Like: 68 °F
Forecast: 60 / 74 °F
Wind: 2 mph from North

Location: Podgorica Titograd

Current Time: Oct 7, 2015 at 8:35:48 PM

Latest Report: Oct 7, 2015 at 8:00 PM

Visibility: N/A

Pressure: 29.74 "Hg

Humidity: 78%

Dew point: 61 °F

Location of PodgoricaLocation

Historic Weather in Podgorica — Graph


Podgorica temperature yesterday

Maximum temperature yesterday: 75 °F (at 12:30 PM)
Minimum temperature yesterday: 55 °F (at 6:30 AM)
Average temperature yesterday: 66 °F

Past Weeks' High & Low Weather Summary

High82 °F (Sep 23, 1:00 PM)100% (Oct 4, 7:00 AM)30.27 "Hg (Oct 4, 7:00 AM)
Low55 °F (Oct 3, 5:00 AM)33% (Sep 28, 1:00 PM)29.74 "Hg (Sep 22, 7:00 PM)
Average68 °F59%30.01 "Hg
* Reported Sep 22 7:00 PM — Oct 7 7:30 PM, Podgorica, Weather by CustomWeather, © 2015

Note: Actual official high and low records may vary slightly from our data, if they occured in-between our weather recording intervals... More about our weather records


Podgorica weather history for previous 24 hours

Time TempWeatherWind HumidityBarometerVisibility
7:30 PM
Wed, Oct 7
70 °FPartly cloudy.2 mph73%29.74 "HgN/A
7:00 PM70 °FBroken clouds.2 mph73%29.74 "HgN/A
6:30 PM70 °FBroken clouds.3 mph73%29.74 "HgN/A
6:00 PM72 °FPartly sunny.2 mph65%29.74 "HgN/A
5:30 PM73 °FPartly sunny.3 mph61%29.74 "HgN/A
5:00 PM72 °FPartly sunny.6 mph65%29.74 "HgN/A
4:30 PM73 °FBroken clouds.6 mph61%29.74 "HgN/A
4:00 PM73 °FBroken clouds.2 mph61%29.74 "HgN/A
3:30 PM75 °FPartly sunny.3 mph57%29.74 "HgN/A
3:00 PM73 °FPartly sunny.2 mph57%29.74 "HgN/A
2:30 PM73 °FScattered clouds.2 mph57%29.74 "HgN/A
2:00 PM75 °FScattered clouds.2 mph57%29.74 "HgN/A
1:30 PM73 °FPartly sunny.3 mph57%29.77 "HgN/A
1:00 PM72 °FBroken clouds.2 mph61%29.77 "HgN/A
12:30 PM72 °FPartly sunny.1 mph61%29.77 "HgN/A
12:00 PM70 °FPartly sunny.1 mph64%29.77 "HgN/A
11:30 AM70 °FBroken clouds.No wind69%29.77 "HgN/A
11:00 AM66 °FLight rain. Broken clouds.3 mph83%29.77 "HgN/A
10:30 AM68 °FBroken clouds.1 mph78%29.77 "HgN/A
10:00 AM66 °FBroken clouds.1 mph83%29.80 "HgN/A
9:30 AM64 °FMore clouds than sun.2 mph88%29.77 "HgN/A
9:00 AM63 °FMostly cloudy.2 mph100%29.77 "HgN/A
8:30 AM63 °FMostly cloudy.2 mph94%29.77 "HgN/A
8:00 AM63 °FMostly cloudy.No wind94%29.77 "HgN/A
7:30 AM63 °FMostly cloudy.No wind94%29.77 "HgN/A
7:00 AM63 °FLight rain. Mostly cloudy.2 mph94%29.80 "Hg4 mi
6:30 AM63 °FLight rain. Mostly cloudy.5 mph94%29.77 "Hg4 mi
6:00 AM63 °FRain. Mostly cloudy.7 mph94%29.80 "Hg4 mi
5:30 AM63 °FLight rain. Mostly cloudy.7 mph94%29.80 "HgN/A
5:00 AM63 °FLight rain. Mostly cloudy.7 mph94%29.80 "HgN/A
4:30 AM63 °FLight rain. Mostly cloudy.6 mph94%29.80 "HgN/A
4:00 AM63 °FLight rain. Mostly cloudy.8 mph94%29.80 "HgN/A
3:30 AM63 °FPartly cloudy.8 mph94%29.83 "HgN/A
3:00 AM63 °FPartly cloudy.9 mph94%29.83 "HgN/A
2:30 AM64 °FPartly cloudy.5 mph88%29.83 "HgN/A
2:00 AM64 °FPartly cloudy.5 mph88%29.83 "HgN/A
1:30 AM64 °FPartly cloudy.5 mph88%29.83 "HgN/A
1:00 AM66 °FPartly cloudy.5 mph83%29.83 "HgN/A
12:30 AM66 °FPassing clouds.2 mph78%29.83 "HgN/A
12:00 AM66 °FPassing clouds.3 mph83%29.83 "HgN/A
11:30 PM
Tue, Oct 6
66 °FPassing clouds.1 mph78%29.86 "HgN/A
11:00 PM66 °FPassing clouds.2 mph78%29.86 "HgN/A
10:30 PM66 °FPassing clouds.2 mph78%29.86 "HgN/A
10:00 PM68 °FPassing clouds.2 mph73%29.86 "HgN/A
9:30 PM66 °FPassing clouds.1 mph78%29.86 "HgN/A
9:00 PM68 °FPassing clouds.No wind69%29.86 "HgN/A
8:30 PM68 °FPassing clouds.3 mph69%29.86 "HgN/A
8:00 PM68 °FPassing clouds.2 mph69%29.86 "HgN/A
Weather by CustomWeather, © 2015

See weather overviewHow to use our weather pages